Overview Statistics Trail Chart Weather Telemetry Raw packets
 

This is the latest recevied weather packets stored in our database for station/object WA5TET. If no packets are shown the sender has not sent any weather packets the latest 10 day(s).

<< 99 100 101 102 103 104 105 >>
Time Temp. Humidity Pressure Rain* Wind** Luminosity Snow
1787868365 38.33° C 30% 1012.2 hPa 0 mm - 498 W/m² -
1787868061 38.33° C 32% 1012.1 hPa 0 mm - 538 W/m² -
1787867756 38.33° C 33% 1012.3 hPa 0 mm - 521 W/m² -
1787867450 38.89° C 31% 1012.4 hPa 0 mm - 568 W/m² -
1787867146 38.89° C 33% 1012.5 hPa 0 mm - 546 W/m² -
1787866841 38.89° C 31% 1012.6 hPa 0 mm - 618 W/m² -
1787866536 38.89° C 33% 1012.7 hPa 0 mm - 643 W/m² -
1787866235 38.33° C 32% 1012.7 hPa 0 mm - 693 W/m² -
1787865930 38.33° C 33% 1012.6 hPa 0 mm - 685 W/m² -
1787865626 38.33° C 32% 1012.7 hPa 0 mm - 738 W/m² -
1787865325 38.89° C 32% 1012.9 hPa 0 mm - 614 W/m² -
1787865021 38.89° C 33% 1012.8 hPa 0 mm - 747 W/m² -
1787864716 38.89° C 32% 1012.7 hPa 0 mm - 769 W/m² -
1787864416 38.33° C 33% 1012.8 hPa 0 mm - 795 W/m² -
1787864116 38.33° C 33% 1012.8 hPa 0 mm - 809 W/m² -
1787863815 38.33° C 34% 1013.1 hPa 0 mm - 719 W/m² -
1787863513 38.33° C 34% 1013.1 hPa 0 mm - 745 W/m² -
1787863209 37.78° C 36% 1013 hPa 0 mm - 768 W/m² -
1787862904 37.78° C 33% 1013.4 hPa 0 mm - 776 W/m² -
1787862605 37.78° C 33% 1013.2 hPa 0 mm - 722 W/m² -
1787862300 37.78° C 32% 1013.4 hPa 0 mm - 654 W/m² -
1787861995 37.78° C 31% 1013.2 hPa 0 mm - 407 W/m² -
1787861695 38.33° C 32% 1013.2 hPa 0 mm - 515 W/m² -
1787861393 38.33° C 30% 1013.5 hPa 0 mm - 679 W/m² -
1787861089 38.33° C 32% 1013.3 hPa 0 mm - 715 W/m² -

* Rain latest hour (hover to see other rain measurements)
** Current wind speed in m/s (hover to see current wind gust speed)